Wind_Speed
5 5 4 3 3 2 3 4 5 6 7 8 9 10 10 12 11 12 11 11 9 9 9 9 8 8 8 8 7 6 5 5 5 5 5 5 5 5 5 4 4 3 3 3 3 3 4 4 4
6 5 4 3 1 1 2 4 6 8 9 10 10 10 11 11 11 11 11 11 10 9 9 9 8 8 8 8 7 7 6 5 5 5 5 5 5 5 5 5 5 4 3 3 3 3 4 4 4
7 6 5 4 1 1 2 4 6 8 10 11 12 12 12 12 12 12 11 11 11 10 9 9 8 8 8 7 7 7 6 5 5 5 5 5 5 6 6 5 5 4 4 4 4 3 3 4 4
7 6 5 4 1 2 3 4 6 8 10 11 13 13 14 13 12 12 12 11 11 10 9 9 8 8 8 8 8 7 6 6 6 6 5 5 5 5 5 4 4 4 4 4 4 4 3 3 4
8 7 6 4 2 2 3 4 5 7 10 11 13 14 15 13 12 12 12 11 10 10 9 9 9 9 9 8 8 8 7 6 6 6 5 5 6 5 4 4 4 4 5 5 5 5 4 4 4
9 9 7 4 3 2 3 5 6 8 10 11 13 14 16 15 13 12 12 10 10 10 10 9 9 9 8 8 8 8 8 7 6 6 5 6 6 5 4 4 4 4 4 5 5 6 6 5 5
11 10 8 6 4 4 4 5 7 10 12 13 13 14 15 15 14 12 12 10 10 10 10 10 9 9 8 8 7 7 7 7 6 6 6 6 6 5 4 4 4 4 5 5 5 6 6 6 6
12 10 8 7 6 6 5 6 8 10 13 13 13 14 15 16 15 13 12 12 11 10 10 10 9 9 9 8 8 7 7 7 7 7 7 7 6 4 4 4 4 5 5 6 6 7 7 7 7
12 10 8 8 8 8 8 8 10 11 13 14 14 15 15 15 15 14 13 12 11 10 10 9 9 9 9 8 8 7 7 7 6 6 6 6 6 5 4 5 5 6 6 6 6 7 7 7 8
12 10 8 9 9 10 10 10 10 13 13 14 15 16 16 14 15 14 13 12 11 11 10 10 9 10 10 9 8 8 7 7 6 6 7 6 6 5 5 6 6 7 7 7 7 8 8 8 8
13 12 11 12 12 11 12 12 12 14 14 15 15 15 16 15 15 13 13 12 11 11 11 11 10 10 11 10 9 8 8 7 6 6 6 6 5 5 6 6 7 7 8 8 9 9 9 9 9
14 13 13 12 13 13 14 15 14 15 14 15 16 15 15 15 15 15 14 12 11 11 11 10 9 10 9 9 8 7 7 8 7 7 7 6 6 6 7 7 8 9 9 9 9 10 10 10 11
13 13 13 12 13 15 16 15 15 15 15 15 15 14 15 15 14 14 14 13 12 12 11 11 11 11 10 9 9 8 8 7 8 8 8 7 7 7 7 7 8 9 9 10 11 11 11 12 12
13 13 13 13 13 14 15 15 15 15 15 15 15 15 15 14 13 13 14 14 14 12 12 12 11 11 10 9 9 9 9 9 8 8 9 9 8 8 8 9 9 9 9 10 11 12 12 12 12
13 12 11 12 13 12 14 14 13 14 15 15 15 14 14 14 13 13 14 15 15 15 14 12 12 12 11 10 10 10 10 10 10 9 10 10 9 9 9 9 9 9 9 9 10 11 12 13 13
14 12 10 10 11 12 15 14 12 14 14 14 13 13 13 13 14 14 15 15 15 15 15 14 13 13 13 12 11 11 11 11 10 10 11 11 10 10 10 10 10 10 10 10 11 11 12 12 13
14 13 12 12 12 13 16 15 14 15 16 15 14 14 13 13 14 15 15 16 16 16 16 16 15 15 14 14 13 13 13 13 12 12 13 12 12 12 12 12 12 11 11 12 12 12 12 13 13
15 15 14 13 13 16 17 17 17 16 17 17 15 15 14 13 14 15 16 17 17 17 17 16 16 16 16 15 15 14 14 14 14 14 14 14 13 14 14 13 13 13 13 13 13 14 14 14 14
17 16 15 14 14 17 17 19 19 18 18 18 17 15 15 14 15 16 16 17 18 18 18 17 17 17 17 16 16 15 14 14 14 14 15 15 14 15 15 15 15 15 15 15 15 15 16 15 15
17 18 17 15 15 19 20 20 20 20 19 19 18 16 16 15 15 16 17 18 18 19 19 19 18 18 18 17 18 17 17 16 15 16 16 16 16 16 16 16 17 17 17 17 16 16 16 16 16
19 20 19 17 16 19 22 23 21 21 20 19 18 17 17 17 16 17 17 18 19 20 19 19 19 19 20 19 18 18 17 18 18 17 18 18 18 18 17 17 18 18 19 18 18 17 17 17 16
21 20 20 19 18 19 21 23 22 22 21 21 20 20 18 17 16 17 18 18 19 20 19 19 20 21 21 21 19 19 19 19 18 18 18 18 19 18 18 18 18 19 19 19 19 19 18 17 17
20 19 20 20 21 21 21 23 22 22 21 21 20 20 18 17 17 18 18 19 19 20 20 20 20 21 21 21 20 19 19 19 18 19 18 18 18 18 18 19 19 19 19 20 20 20 20 20 20
20 20 22 22 23 24 22 24 23 22 22 21 21 20 19 18 18 18 19 20 21 21 21 20 19 20 20 20 20 18 19 19 19 18 18 18 17 18 19 19 19 19 20 20 20 21 21 21 21
22 23 24 24 25 25 23 25 24 23 23 23 23 22 21 20 21 20 21 21 21 21 21 19 19 19 20 20 19 18 18 19 18 18 18 18 18 19 19 20 20 21 21 21 20 21 22 22 22
22 23 25 26 26 25 25 27 25 24 23 23 23 23 21 20 21 21 21 21 21 21 21 20 19 20 20 19 19 19 19 19 19 19 19 19 19 19 20 20 20 20 21 21 21 22 22 22 22
23 24 25 27 27 28 28 27 25 23 22 22 22 23 22 20 20 21 22 22 21 21 21 21 20 20 20 20 19 19 19 18 18 18 19 19 19 19 19 20 20 20 20 20 21 22 22 22 23
25 24 26 28 28 28 28 27 25 22 21 22 22 23 23 22 23 23 24 23 22 22 22 22 21 20 21 20 19 18 18 18 18 18 18 19 19 19 20 20 20 20 21 21 21 21 22 22 23
25 26 27 28 29 30 29 27 24 24 23 24 24 24 23 22 23 23 23 23 23 23 22 21 20 19 19 18 17 18 18 17 18 17 18 18 19 20 20 20 20 20 20 21 21 21 21 22 22
25 27 28 29 30 31 32 29 26 25 25 26 26 23 22 23 23 23 23 24 23 23 22 21 20 18 18 18 17 17 17 18 18 18 17 18 18 19 20 20 21 21 21 21 20 20 20 20 21
Wind_Direction
166 165 151 144 129 76 29 31 10 4 354 353 348 343 343 347 351 350 343 339 341 343 344 346 346 346 346 343 340 338 334 332 327 318 313 299 292 286 275 267 261 267 260 254 240 242 238 236 238
182 184 175 171 161 83 26 19 4 358 348 347 343 341 340 345 349 346 342 339 341 340 340 340 342 344 345 341 337 336 330 325 319 313 308 300 290 283 277 269 254 253 252 248 240 246 239 238 239
193 202 198 185 183 331 350 13 352 337 337 338 339 338 336 339 344 344 343 342 340 337 336 337 338 340 341 339 335 334 332 326 316 308 303 301 290 285 286 273 254 249 247 244 245 242 242 242 245
211 218 216 204 203 335 352 356 351 334 326 323 328 331 335 338 342 343 342 340 335 332 330 332 335 337 335 333 333 331 329 322 318 312 304 303 293 288 293 280 261 256 253 251 247 246 248 247 247
225 227 234 231 219 316 332 346 338 320 314 315 318 325 332 338 340 339 339 337 331 332 330 329 331 329 329 327 324 325 325 321 316 315 309 306 296 287 272 273 265 260 256 253 252 246 249 252 253
228 233 236 235 239 280 313 324 320 314 312 312 318 322 325 330 336 337 334 335 329 330 328 325 323 321 322 324 320 318 319 319 313 309 308 306 299 284 271 267 266 265 264 260 259 250 249 252 254
234 233 232 236 244 269 307 305 296 299 301 306 316 321 323 326 333 336 333 332 329 328 327 323 318 318 317 315 314 312 313 315 310 302 300 298 296 288 272 266 266 266 269 265 260 255 252 252 253
236 238 239 239 245 256 273 286 287 291 294 301 309 315 316 319 324 328 328 327 329 328 325 325 322 318 317 310 305 306 308 310 309 303 296 294 293 290 274 270 267 267 269 266 259 255 255 255 256
237 241 244 245 245 252 259 268 283 287 291 298 302 306 311 313 318 320 321 322 325 325 322 320 322 319 316 311 301 302 302 301 303 305 297 289 289 286 275 272 268 267 267 268 261 256 259 260 259
239 237 245 254 255 257 264 269 277 282 288 296 297 300 306 308 314 315 317 317 322 325 322 320 319 317 313 309 298 296 295 297 299 300 296 288 285 276 278 268 269 269 270 269 264 262 264 267 266
243 241 241 249 255 259 266 268 272 279 288 294 296 298 304 307 311 314 314 315 320 322 320 319 318 321 318 306 295 292 292 294 295 298 294 288 289 279 271 275 266 267 271 269 263 266 265 267 269
247 244 243 247 254 258 265 268 271 278 287 293 296 300 302 306 309 314 311 309 314 319 320 319 320 323 321 315 302 291 289 291 290 294 297 294 294 290 278 273 272 271 271 270 270 272 271 267 267
247 249 251 249 256 258 260 264 274 279 286 293 296 297 299 303 310 312 310 309 310 312 316 317 317 319 316 310 304 295 294 291 287 286 289 288 285 284 282 279 277 277 276 272 272 273 272 269 268
245 250 254 255 259 262 263 267 274 280 283 287 294 298 300 303 307 310 310 309 308 308 309 313 312 313 308 305 299 292 286 282 282 283 286 287 285 284 285 284 279 278 278 278 273 271 272 270 269
247 254 258 261 265 263 266 268 276 280 282 286 290 292 293 295 300 303 305 305 305 304 304 305 304 306 300 296 294 289 283 281 279 279 283 284 286 287 285 282 279 279 279 279 279 278 275 273 268
246 253 254 255 265 268 268 267 274 277 281 285 285 288 291 294 298 300 304 304 303 302 303 301 300 298 296 291 288 286 282 275 276 276 278 280 281 282 283 282 281 279 280 281 283 282 280 278 272
246 250 250 247 257 264 269 272 275 278 281 283 282 285 288 291 296 298 300 302 302 302 302 300 298 295 293 290 285 285 282 276 273 272 273 275 276 278 279 278 281 281 280 282 284 283 280 278 274
251 253 252 252 259 267 270 273 274 275 281 279 279 283 287 288 292 295 296 298 299 301 302 301 296 292 290 290 288 288 280 275 274 271 271 274 273 275 276 275 277 280 280 281 282 282 282 281 277
251 254 252 254 259 265 269 269 273 273 276 277 279 283 288 288 292 293 292 293 297 300 301 300 297 290 288 289 286 284 278 274 271 269 269 271 271 272 271 272 273 277 278 279 280 281 280 279 277
251 255 256 257 256 262 264 265 268 270 271 273 278 283 288 287 288 295 292 289 293 296 297 297 296 292 287 286 284 280 278 277 272 267 267 268 268 270 269 269 271 273 275 277 280 281 281 279 277
251 257 258 262 263 262 265 264 263 263 267 269 277 282 283 286 290 296 294 292 291 294 295 294 294 293 292 286 285 280 278 278 274 269 267 268 268 268 268 269 270 271 274 276 278 279 279 276 274
254 257 259 261 262 262 266 266 261 262 265 270 275 276 281 282 285 292 293 292 293 295 293 291 290 290 290 289 286 285 280 279 274 271 270 268 267 267 268 269 269 271 272 274 276 275 274 275 274
257 257 261 260 259 261 261 266 266 266 268 270 271 274 277 279 281 286 289 292 292 293 292 290 289 287 288 289 287 282 279 277 274 273 271 270 266 265 268 269 270 271 271 274 274 273 274 275 275
256 257 260 260 260 261 259 263 269 269 271 271 270 270 271 272 277 281 286 291 289 290 290 289 291 289 287 286 284 282 280 279 275 271 271 270 267 267 269 270 272 272 271 273 274 274 274 274 273
254 258 262 263 263 264 263 265 271 272 268 269 268 271 269 273 277 280 283 287 287 288 289 289 291 290 285 284 282 280 279 277 274 270 268 268 269 269 271 274 275 275 272 272 274 273 274 274 273
252 257 262 267 268 269 266 267 271 271 268 268 272 273 274 275 276 279 284 284 285 286 286 288 290 289 286 283 281 279 276 274 271 269 268 268 269 270 270 273 276 276 273 274 275 276 275 274 272
252 254 260 264 266 268 267 268 270 271 270 270 273 274 279 280 280 281 282 281 282 283 283 284 288 288 286 283 281 278 276 274 271 269 268 269 270 270 271 273 275 274 273 275 277 275 274 274 273
252 254 255 258 264 267 270 272 273 272 270 271 271 274 275 276 280 283 283 279 280 280 278 280 283 284 284 283 282 280 276 276 272 269 268 270 270 271 272 271 272 273 273 274 276 277 276 275 275
250 251 253 257 263 268 271 271 275 272 269 267 268 272 272 275 277 279 281 281 282 282 280 279 280 280 282 281 279 278 281 280 274 270 269 269 271 273 273 270 271 273 272 273 275 278 276 274 274
250 251 253 257 261 266 269 272 274 272 269 267 266 267 273 277 279 281 284 283 283 282 283 281 278 280 282 282 280 280 280 281 279 276 273 271 271 272 273 274 272 273 273 273 274 276 276 275 275
Height
5909 5908 5909 5909 5910 5909 5907 5906 5906 5905 5905 5905 5905 5904 5903 5902 5902 5902 5899 5896 5894 5892 5891 5890 5889 5888 5887 5886 5885 5884 5883 5883 5882 5881 5881 5880 5880 5879 5879 5878 5878 5878 5878 5878 5878 5878 5878 5878 5878
5908 5908 5909 5909 5908 5907 5907 5906 5905 5905 5905 5904 5904 5903 5902 5902 5901 5899 5897 5894 5893 5892 5891 5890 5889 5888 5887 5886 5885 5884 5883 5882 5881 5881 5880 5880 5879 5879 5878 5878 5878 5878 5878 5878 5878 5877 5877 5877 5877
5907 5907 5908 5908 5907 5907 5906 5905 5905 5905 5904 5904 5903 5902 5901 5900 5900 5898 5896 5893 5892 5891 5890 5889 5888 5887 5886 5885 5884 5883 5882 5882 5881 5880 5879 5879 5878 5878 5877 5877 5877 5877 5877 5877 5877 5877 5877 5877 5877
5906 5906 5907 5907 5905 5905 5904 5904 5903 5904 5903 5903 5902 5901 5900 5899 5898 5897 5895 5893 5891 5890 5889 5888 5887 5886 5885 5884 5884 5883 5882 5881 5880 5879 5878 5878 5877 5877 5877 5876 5876 5876 5877 5877 5876 5876 5876 5876 5876
5905 5905 5906 5905 5904 5904 5903 5903 5902 5903 5902 5902 5901 5899 5898 5898 5897 5896 5894 5892 5891 5890 5888 5887 5886 5885 5884 5883 5883 5882 5881 5880 5879 5878 5877 5877 5876 5876 5876 5876 5876 5876 5876 5876 5876 5876 5876 5875 5875
5904 5904 5905 5904 5903 5903 5903 5902 5902 5902 5901 5901 5900 5898 5896 5896 5895 5894 5892 5891 5890 5888 5887 5886 5885 5884 5883 5882 5881 5880 5880 5879 5878 5877 5876 5875 5875 5875 5875 5874 5875 5875 5875 5875 5874 5875 5875 5875 5875
5902 5902 5902 5902 5902 5902 5902 5901 5901 5900 5899 5899 5898 5897 5895 5893 5893 5892 5891 5890 5889 5887 5886 5885 5883 5882 5881 5881 5880 5879 5878 5877 5876 5876 5875 5874 5874 5874 5874 5874 5873 5874 5874 5874 5874 5874 5874 5874 5874
5900 5901 5900 5901 5900 5900 5900 5899 5899 5899 5898 5897 5896 5895 5893 5892 5891 5890 5889 5888 5887 5886 5885 5883 5882 5881 5880 5879 5878 5877 5877 5876 5875 5875 5874 5873 5873 5872 5873 5872 5872 5872 5872 5872 5872 5872 5873 5873 5873
5897 5899 5898 5898 5898 5899 5898 5897 5897 5897 5895 5895 5894 5893 5892 5890 5889 5888 5887 5887 5885 5884 5883 5882 5881 5879 5878 5877 5876 5876 5875 5874 5874 5873 5872 5872 5872 5871 5871 5871 5871 5871 5871 5871 5871 5871 5871 5871 5871
5895 5895 5896 5896 5896 5896 5896 5895 5895 5894 5893 5893 5892 5891 5889 5888 5887 5886 5885 5885 5884 5882 5881 5880 5879 5878 5876 5875 5874 5874 5873 5873 5872 5871 5871 5870 5870 5870 5870 5870 5870 5869 5869 5869 5869 5870 5869 5869 5869
5892 5893 5894 5893 5893 5893 5893 5893 5893 5892 5891 5891 5890 5889 5888 5886 5885 5883 5883 5882 5882 5880 5879 5878 5877 5875 5873 5872 5872 5872 5871 5871 5870 5870 5869 5869 5869 5868 5868 5868 5868 5868 5868 5867 5868 5868 5867 5867 5867
5889 5890 5890 5890 5890 5890 5890 5890 5890 5889 5889 5889 5888 5887 5885 5884 5883 5882 5881 5880 5880 5879 5877 5876 5875 5874 5872 5871 5870 5870 5869 5869 5868 5868 5868 5867 5867 5867 5866 5866 5866 5866 5866 5866 5865 5865 5865 5865 5865
5887 5888 5888 5888 5888 5887 5887 5887 5887 5887 5886 5885 5885 5883 5883 5882 5881 5880 5878 5878 5877 5876 5875 5874 5873 5871 5870 5869 5868 5868 5867 5867 5867 5866 5866 5865 5865 5865 5865 5864 5864 5863 5863 5863 5863 5863 5863 5862 5862
5884 5884 5885 5885 5885 5884 5884 5884 5884 5884 5883 5883 5882 5881 5880 5879 5878 5878 5876 5875 5874 5874 5873 5872 5870 5869 5868 5867 5866 5865 5865 5864 5864 5864 5864 5863 5863 5863 5862 5862 5861 5861 5861 5860 5860 5860 5860 5859 5859
5880 5881 5882 5882 5882 5881 5881 5881 5881 5881 5880 5879 5879 5878 5877 5876 5875 5874 5874 5873 5872 5871 5870 5869 5868 5866 5865 5864 5863 5863 5862 5862 5861 5861 5861 5861 5860 5860 5860 5859 5859 5859 5858 5857 5857 5857 5857 5856 5856
5877 5878 5878 5879 5878 5878 5878 5878 5878 5877 5876 5876 5875 5875 5874 5873 5872 5871 5870 5870 5869 5868 5867 5866 5865 5863 5863 5861 5860 5860 5859 5859 5859 5858 5858 5858 5857 5857 5857 5856 5856 5856 5855 5855 5854 5854 5853 5853 5853
5873 5874 5874 5875 5874 5873 5873 5873 5874 5873 5872 5872 5871 5871 5870 5870 5869 5868 5867 5866 5865 5864 5863 5862 5861 5860 5859 5858 5857 5856 5855 5855 5855 5855 5854 5854 5854 5854 5854 5853 5853 5853 5852 5852 5851 5851 5850 5849 5849
5869 5869 5870 5870 5870 5869 5868 5868 5869 5868 5868 5868 5867 5866 5866 5866 5866 5865 5864 5862 5861 5860 5859 5858 5857 5857 5856 5854 5853 5851 5851 5851 5851 5850 5851 5850 5850 5850 5850 5850 5850 5850 5849 5849 5848 5847 5846 5846 5845
5863 5864 5865 5866 5866 5864 5864 5864 5864 5863 5864 5864 5863 5862 5862 5862 5862 5861 5860 5858 5858 5856 5855 5854 5853 5852 5851 5850 5849 5847 5846 5846 5846 5846 5846 5846 5846 5846 5846 5846 5846 5846 5845 5845 5844 5844 5843 5842 5842
5858 5859 5860 5861 5861 5860 5859 5860 5860 5859 5859 5859 5858 5858 5858 5857 5857 5856 5856 5854 5853 5852 5851 5850 5849 5847 5846 5845 5844 5843 5842 5842 5842 5842 5841 5842 5842 5841 5841 5841 5841 5841 5841 5841 5840 5840 5839 5838 5838
5854 5855 5855 5856 5856 5856 5855 5855 5855 5854 5854 5854 5854 5853 5854 5853 5852 5851 5851 5850 5849 5848 5847 5845 5844 5843 5841 5839 5838 5838 5837 5837 5837 5837 5837 5837 5837 5837 5836 5836 5837 5837 5836 5836 5836 5835 5835 5834 5834
5849 5850 5850 5851 5851 5851 5851 5849 5850 5849 5849 5849 5849 5849 5849 5848 5848 5847 5846 5846 5845 5844 5842 5841 5839 5838 5836 5834 5833 5832 5832 5832 5832 5832 5832 5832 5832 5832 5832 5831 5832 5832 5831 5831 5830 5830 5830 5829 5829
5843 5845 5845 5845 5845 5845 5845 5843 5844 5844 5843 5844 5844 5844 5844 5844 5843 5843 5842 5841 5840 5839 5837 5835 5834 5832 5831 5829 5828 5827 5827 5827 5826 5827 5827 5826 5826 5827 5826 5826 5826 5826 5826 5826 5825 5825 5824 5824 5824
5838 5839 5839 5839 5839 5838 5840 5838 5838 5839 5838 5838 5839 5839 5839 5839 5838 5838 5837 5836 5835 5833 5831 5829 5827 5826 5825 5823 5822 5822 5822 5821 5821 5821 5821 5821 5821 5821 5821 5821 5821 5821 5820 5820 5820 5819 5819 5818 5818
5832 5832 5832 5831 5832 5832 5834 5832 5833 5834 5833 5833 5833 5834 5833 5833 5832 5832 5831 5830 5829 5827 5825 5823 5822 5821 5819 5818 5817 5817 5816 5816 5815 5815 5816 5816 5816 5816 5816 5815 5815 5815 5814 5814 5814 5813 5813 5812 5812
5826 5826 5826 5826 5825 5826 5827 5825 5828 5828 5828 5827 5827 5827 5826 5826 5826 5825 5825 5824 5823 5822 5820 5819 5818 5816 5814 5813 5812 5811 5811 5810 5810 5810 5810 5810 5810 5810 5810 5809 5809 5808 5808 5808 5807 5807 5806 5806 5805
5819 5819 5820 5820 5819 5819 5819 5820 5821 5822 5822 5821 5820 5820 5820 5820 5819 5819 5819 5818 5817 5816 5815 5814 5813 5811 5809 5808 5807 5805 5805 5804 5804 5804 5804 5804 5804 5804 5803 5803 5802 5802 5802 5801 5800 5800 5799 5799 5798
5814 5814 5814 5813 5812 5812 5813 5814 5816 5816 5815 5815 5815 5815 5815 5815 5814 5813 5812 5810 5810 5810 5809 5808 5807 5805 5804 5802 5801 5800 5799 5798 5798 5798 5798 5798 5798 5798 5797 5797 5796 5796 5795 5795 5794 5793 5792 5792 5791
5807 5807 5807 5807 5806 5806 5806 5809 5810 5810 5810 5810 5809 5809 5808 5809 5808 5807 5806 5804 5804 5804 5803 5801 5800 5799 5798 5796 5795 5794 5793 5793 5792 5792 5792 5792 5792 5792 5791 5791 5790 5790 5789 5788 5787 5786 5785 5785 5784
5800 5800 5800 5801 5800 5800 5799 5803 5802 5803 5802 5803 5803 5802 5802 5802 5801 5800 5799 5798 5797 5796 5795 5794 5794 5793 5792 5790 5789 5789 5788 5787 5787 5786 5786 5786 5786 5786 5785 5785 5784 5783 5782 5782 5781 5780 5779 5778 5777